Location: Devore Heights
(34.2372°N, 117.4156°W)
Time: 01:43:43
(UTC+00:00)

Vanguard 2 Rocket - Pass Details

Date: 14 September 2024
Orbit: 553 x 3298 km, 32.9° (Epoch: 09 October)

Event Time Altitude Azimuth Distance (km) Brightness Sun altitude
Exits shadow 12:09:04 20° 271° (W) 4,104 9.6 -17.8°
Maximum altitude 12:21:04 85° 186° (S) 2,946 9.4 -15.4°
Drops below altitude 10° 12:41:32 10° 101° (ESE) 6,231 12.3 -11.3°
Sets 12:46:14 0° 101° (ESE) 7,169 12.9 -10.3°
